Время (UTC), дата Ветер
(°,м/с) 
Видим.   Явления Облачность Т
(°С)
Тd
(°С)
f(%) Тe
(°С)
Pmin
(гПа)
dP
(гПа)
Po
(мм)
O2
(г/м3)
Тmin Tmax R s Состояние
почвы
00 01.01.11 050 (СВ) 10 км  сильн. ливневой дождь  10/8 240 м кучево-дожд., средняя 
[Cb cap|Ac und]
-2.6 -2.9 98 -4  1020.2  -0.9  723  294           
03 01.01.11 тихо ()   10 км  слаб. ливневой снег  10/8 120 м кучево-дожд., средняя 
[Cb cap|Ac und]
-2.6 -3 97 -3  1019.8  -0.3  723  294        равномерный
мокрый или
старый снег
100% 
06 01.01.11 тихо ()   2000 м  дымка{ливн. осадки}  10/8 60 м кучево-дожд., средняя 
[Cb calv|Ac und]
-2.7 -2.9 98 -3  1020.7  0.8  723  295  -2.7         
09 01.01.11 180 (Ю) 1000 м  дымка{ливн. осадки}  10/8 60 м кучево-дожд., средняя 
[Cb calv|Ac und]
-1.1 -1.5 97 -2  1019.9  -0.4  723  293           
12 01.01.11 260 (З) 10 км  {ливн. осадки}  10/8 210 м кучево-дожд., средняя 
[Cb calv|Ac und]
-0.9 -1.9 93 -4  1019.8  723  292           
15 01.01.11 250 (З) >10 км    4/0 средняя 
[Ac trans]
-2.6 -3.6 93 -5  1020.8  0.6  723  295    -0.3       
18 01.01.11 220 (ЮЗ) >10 км    3/0 средняя 
[Ac trans]
-3.7 -4.8 92 -7  1021.1  723  296    -0.3  0.0     
21 01.01.11 180 (Ю) >10 км    6/0 средняя 
[Ac trans]
-1.4 -3.5 86 -4  1019.9  -0.6  723  293           
00 02.01.11 210 (ЮЗ) >10 км    4/0 средняя 
[Ac trans]
+0.1 -2.8 81 -2  1019.4  -0.2  723  291           
03 02.01.11 200 (Ю) >10 км    3/0 средняя 
[Ac trans]
-0.4 -3.5 80 -3  1019.3  -0.2  723  292           
06 02.01.11 180 (Ю) >10 км    3/0 средняя 
[Ac trans]
+1.3 -2.7 75 1019.1  -0.1  723  290  -4.2         
09 02.01.11 150 (ЮВ) >10 км    3/0 средняя 
[Ac trans]
+6 -1.4 59 +4  1017.8  -0.3  723  285           
12 02.01.11 130 (ЮВ) >10 км    3/0 средняя 
[Ac trans]
+7.3 -1.7 53 +6  1016.9  -0.6  722  283           
15 02.01.11 130 (ЮВ) >10 км    1/0 средняя 
[Ac trans]
+3.4 -2.3 66 +2  1019.4  1.6  723  288    +7.8       
18 02.01.11 100 (В) >10 км    ясно 
+0.4 -3.5 75 -1  1020.4  0.4  724  291    +7.8       
21 02.01.11 110 (В) >10 км    ясно 
+0.6 -3 77 1020.1  -0.2  723  291           
00 03.01.11 120 (ЮВ) >10 км    ясно 
-0.7 -3.8 79 -2  1020.1  -0.2  723  293           
03 03.01.11 130 (ЮВ) >10 км    ясно 
+0 -3.6 77 -2  1019.5  -0.4  723  292           
06 03.01.11 150 (ЮВ) >10 км    8/0 средняя 
[Ac trans]
+1.1 -2.6 76 1019.9  0.6  723  291  -1.3         
09 03.01.11 130 (ЮВ) >10 км    6/0 средняя 
[Ac trans]
+5.4 -2.3 58 +3  1018.4  -0.7  723  286           
12 03.01.11 140 (ЮВ) >10 км    5/0 средняя 
[Ac trans]
+7 -2.2 52 +5  1017.1  -0.9  722  284           
15 03.01.11 140 (ЮВ) >10 км    3/0 средняя 
[Ac trans]
-0.1 -3 81 -3  1019.8  1.2  723  292    +7.3       
18 03.01.11 140 (ЮВ) >10 км    3/0 средняя 
[Ac trans]
+0.6 -0.5 92 -2  1019.4  -0.3  723  291    +7.3       
21 03.01.11 130 (ЮВ) >10 км    10/5 300 м средняя 
[Sc|Ac und]
+1.4 +0.2 92 -2  1018.3  -0.9  722  289           
00 04.01.11 140 (ЮВ) >10 км    10/8 270 м средняя 
[St|Ac und]
+1.6 +0.4 92 -3  1017.5  -0.7  722  289           
03 04.01.11 140 (ЮВ) >10 км    10/8 240 м средняя 
[St|Ac und]
+1.6 +0.4 92 -2  1016.4  -0.7  721  289           
06 04.01.11 140 (ЮВ) 10  10 км    10/8 180 м средняя 
[St|Ac und]
+1.5 +0.6 94 -3  1015.5  -0.9  720  288  -0.7         
09 04.01.11 140 (ЮВ) 12  >10 км    10/10 270 м 
[St]
+2 +0.4 89 -3  1013.7  -1.5  719  287           
12 04.01.11 150 (ЮВ) >10 км    10/3 300 м средняя, верхняя 
[Sc|Ac As|Ci sp]
+2.5 +0.2 85 -1  1013.1  -0.5  719  287           
15 04.01.11 140 (ЮВ) >10 км    8/3 300 м средняя, верхняя 
[Sc|Ac trans|Ci sp]
+0.2 -0.7 94 -3  1015.9  2.1  720  290    +3       
18 04.01.11 140 (ЮВ) >10 км    10/3 1000 м средняя, верхняя 
[Sc|Ac trans|Ci]
+0.4 -0.7 92 1016.8  0.9  721  290    +3       
21 04.01.11 280 (З) 10 км  слаб. ливневой дождь  10/6 330 м кучево-дожд., средняя 
[Cb cap|Ac und]
+3.3 +2.1 92 +1  1018.2  1.9  722  287           
00 05.01.11 290 (З) 0500 м  туман{ливн. осадки, морось}  ?/?  
+1 +0.8 98 -2  1020.8  724  290           
03 05.01.11 280 (З) 0500 м  туман  н/о 
-1.2 -1.3 99 -5  1022.4  725  293           
06 05.01.11 290 (З) 0700 м  туман [диам. гололёда 1 мм]  ?/?  
-2.4 -2.6 99 -6  1024.7  726  295      0.0     
09 05.01.11 290 (З) 0900 м  слаб. снег{туман}  ?/?  
-3.1 -3.4 98 -6  1026  727  297           
12 05.01.11 320 (СЗ) 4000 м  слаб. ливневой снег  10/8 270 м кучево-дожд., средняя 
[Cb cap|Ac und]
-3.4 -3.8 97 -5  1027  0.9  728  297           
15 05.01.11 360 (С) 4000 м  слаб. ливневой снег [диам. гололёда 2 мм]  10/8 120 м кучево-дожд., средняя 
[Cb cap|Ac und]
-4.1 -4.5 97 -6  1028.5  1.2  729  299    -1.2       
18 05.01.11 030 (СВ) 4000 м  дымка{ливн. осадки}  10/10 150 м 
[St]
-4.3 -4.7 97 -7  1029.6  729  299    -1.2  0.3     
21 05.01.11 060 (СВ) 0500 м  переохл. туман  ?/?  
-4.6 -5 97 -7  1029.9  0.2  730  299           
00 06.01.11 070 (В) 4000 м  дымка{туман} [диам. сложн. отлож. 3 мм]  10/10 150 м 
[St]
-4.7 -5.2 96 -7  1030.6  0.7  730  300           
03 06.01.11 090 (В) 1000 м  дымка [диам. сложн. отлож. 3 мм]  10/10 100 м 
[St]
-4.8 -5.2 97 -7  1030.3  -0.3  730  300        равномерный
сухой снег
100% 
06 06.01.11 100 (В) 2000 м  дымка [диам. сложн. отлож. 3 мм]  10/10 60 м 
[St]
-4.4 -4.8 97 -7  1031.1  0.8  730  300  -4.9         
09 06.01.11 090 (В) 10 км  слаб. ливневой снег  10/10 180 м 
[Ns]
-3.6 -4 97 -7  1030.6  -0.3  730  299           
12 06.01.11 090 (В) 10 км  в посл. час снег  10/10 150 м 
[Ns]
-3.2 -3.5 98 -7  1029.8  -0.6  730  298           
15 06.01.11 090 (В) 4000 м  дымка  10/10 100 м 
[St]
-3.6 -3.9 98 -7  1030.7  0.7  730  299    -3       
18 06.01.11 090 (В) 0500 м  туман  ?/?  
-3.6 -4 97 -8  1030.8  0.1  730  299    -3  0.0     
21 06.01.11 100 (В) 0500 м  туман  ?/? <0100 
-3.9 -4.2 98 -8  1030.4  -0.4  730  299           
00 07.01.11 090 (В) 1000 м  дымка{туман}  10/10 180 м 
[St]
-4.2 -4.7 96 -6  1031.1  0.3  730  299           
03 07.01.11 100 (В) 0700 м  туман  ?/?  
-3.8 -3.8 100 -6  1030.8  -0.2  730  299  -4.4      мокрый или
старый снег
50-90% 
06 07.01.11 100 (В) 2000 м  дымка{туман}  10/10 60 м 
[St]
-3.4 -4.2 94 -5  1013.1  0.4  731  299  -4.4         
09 07.01.11 100 (В) 4000 м  дымка  10/10 180 м 
[St]
-1.8 -2.6 94 -3  1030.6  -0.1  731  297           
12 07.01.11 110 (В) >10 км    10/8 450 м кучево-дожд., средняя 
[Cb calv|Ac und]
-0.6 -1.5 94 -4  1029.7  -0.6  730  295           
15 07.01.11 110 (В) 10 км    10/10 100 м 
[St]
-1.9 -2.1 99 -6  1030.2  0.3  730  297           
18 07.01.11 120 (ЮВ) н/о    н/о 
-1.7 -1.9 99 -6  1029.6  -0.6  730  296    -3       
21 07.01.11 120 (ЮВ) 1500 м  дымка  10/10 60 м 
[St]
-1.3 -1.5 99 -5  1029.5  730  296           
00 08.01.11 110 (В) н/о    н/о 
-1.2 -1.3 99 -4  1029.5  -0.1  730  295           
03 08.01.11 090 (В) 0200 м  переохл. туман  10/10 30 м 
[]
-1.7 -1.9 99 -5  1029.5  0.1  730  296           
06 08.01.11 100 (В) 0200 м  туман  ?/?  
-2.4 -2.6 99 -6  1030.1  0.5  730  297           
09 08.01.11 110 (В) 4000 м  дымка{туман}  10/10 120 м 
[St]
-2 -2.2 99 -5  1029.6  -0.4  730  296           
12 08.01.11 110 (В) >10 км  в посл. час морось{снег, туман}  10/8 120 м средняя 
[St|Ac und]
-2.2 -2.4 98 -6  1029.1  -0.6  729  297           
15 08.01.11 110 (В) 4000 м  дымка  10/10 60 м 
[St]
-3 -3.2 99 -7  1029.8  0.5  730  298    -1.6       
18 08.01.11 110 (В) 2500 м  дымка{снег} [диам. сложн. отлож. 7 мм]  10/10 60 м 
[St]
-3.4 -3.7 98 -6  1030.3  0.4  730  298    -1.6       
21 08.01.11 120 (ЮВ) 0400 м  переохл. туман  ?/?  
-3.4 -3.7 98 -6  1030  -0.3  730  298           
00 09.01.11 120 (ЮВ) 1500 м  дымка{туман} [диам. сложн. отлож. 10 мм]  10/10 60 м 
[St]
-3.5 -3.8 98 -6  1029.9  0.1  730  298           
03 09.01.11 090 (В) 0400 м  переохл. туман [диам. сложн. отлож. 12 мм]  ?/?  
-3.6 -3.6 100 -6  1029.9  730  298           
06 09.01.11 100 (В) 0200 м  переохл. туман  ?/?  
-3.3 -3.6 98 -5  1030.9  731  298           
09 09.01.11 080 (В) 10 км  {туман} [диам. сложн. отлож. 13 мм]  10/8 180 м средняя 
[St|Ac und]
-2.1 -2.3 98 -4  1030.4  -0.2  730  297           
12 09.01.11 080 (В) 10 км  {туман} [диам. сложн. отлож. 10 мм]  10/8 180 м средняя 
[St|Ac und]
-2 -2.2 99 -5  1030.1  -0.3  730  297           
15 09.01.11 090 (В) 4000 м  дымка [диам. сложн. отлож. 10 мм]  10/8 100 м средняя 
[St|Ac und]
-2.8 -3.1 98 -6  1031  0.7  731  298    -1.9       
18 09.01.11 070 (В) 0400 м  переохл. туман [диам. сложн. отлож. 10 мм]  ?/?  
-4.1 -4.4 98 -7  1031.7  0.3  731  299    -1.9       
21 09.01.11 080 (В) 0600 м  переохл. туман  ?/?  
-4.5 -4.9 97 -7  1031.5  -0.3  731  300           
00 10.01.11 100 (В) 2000 м  дымка{туман} [диам. сложн. отлож. 13 мм]  10/10 60 м 
[St]
-4.5 -4.9 97 -7  1031.8  0.3  731  300           
03 10.01.11 110 (В) 1200 м  дымка [диам. сложн. отлож. 13 мм]  10/10 60 м 
[St]
-4.6 -5 97 -7  1031.7  0.1  731  300           
06 10.01.11 120 (ЮВ) 10 км  дымка [диам. сложн. отлож. 14 мм]  10/10 210 м 
[St]
-4.6 -5.1 96 -6  1032.6  0.8  731  300  -4.6         
09 10.01.11 120 (ЮВ) >10 км  [диам. сложн. отлож. 13 мм]  10/8 300 м средняя 
[Sc diur, vesp|Ac trans]
-3.4 -3.7 98 -6  1032.1  -0.2  731  299           
12 10.01.11 110 (В) >10 км  [диам. сложн. отлож. 7 мм]  10/10 210 м 
[St]
-3.9 -4.2 98 -8  1032.6  0.4  732  299           
15 10.01.11 100 (В) >10 км  [диам. сложн. отлож. 6 мм]  10/8 300 м средняя 
[Sc diur, vesp|Ac trans]
-4.2 -4.6 97 -8  1033.4  0.6  732  300    -3.4       
18 10.01.11 090 (В) 4000 м  слаб. снег [диам. сложн. отлож. 4 мм]  10/8 60 м 
[St]
-4.8 -5.2 97 -9  1033.3  0.6  732  301    -3.4       
21 10.01.11 110 (В) 4000 м  снежные зёрна [диам. сложн. отлож. 9 мм]  10/10 60 м 
[St]
-5 -5.5 96 -8  1032.7  -0.6  731  301           
00 11.01.11 140 (ЮВ) 4000 м  {снег} [диам. сложн. отлож. 11 мм]  10/10 150 м 
[St]
-5.2 -5.6 97 -9  1032.6  0.1  731  301           
03 11.01.11 140 (ЮВ) 10 км  [диам. сложн. отлож. 12 мм]  10/10 120 м 
[St]
-5 -5.5 96 -9  1032.1  -0.4  731  301           
06 11.01.11 140 (ЮВ) 4000 м  дымка [диам. сложн. отлож. 12 мм]  10/10 100 м 
[St]
-5.4 -6.1 95 -10  1032.7  0.4  731  301  -5.7    0.0     
09 11.01.11 130 (ЮВ) 4000 м  дымка [диам. сложн. отлож. 9 мм]  10/10 180 м 
[St]
-3.8 -4.6 94 -7  1031.3  -1  731  299           
12 11.01.11 140 (ЮВ) 10 км  [диам. сложн. отлож. 5 мм]  10/10 210 м 
[St]
-3.7 -4.1 97 -8  1030.6  -0.6  730  299           
15 11.01.11 140 (ЮВ) 10 км    10/10 120 м 
[St]
-4.6 -5 97 -9  1031  0.2  730  300    -4.2       
18 11.01.11 150 (ЮВ) 10 км    10/10 120 м 
[St]
-4.7 -5.1 97 -9  1030.8  -0.2  730  300    -4.2       
21 11.01.11 130 (ЮВ) 10 км    10/10 100 м 
[St]
-5 -5.4 97 -7  1030.3  -0.6  730  300           
00 12.01.11 120 (ЮВ) >10 км    6/3 330 м средняя 
[Sc|Ac trans]
-6.7 -7.3 96 -9  1030.2  -0.4  729  302           
03 12.01.11 130 (ЮВ) 10 км    3/3 300 м 
[Sc]
-6.9 -7.4 96 -10  1029.6  -0.6  729  302           
06 12.01.11 160 (Ю) 4000 м  дымка  3/3 200 м 
[St]
-5.7 -6.2 96 -8  1029.5  0.1  729  301  -6.9         
09 12.01.11 140 (ЮВ) >10 км    6/4 240 м верхняя 
[St|Ci]
-2.1 -2.4 98 -5  1027.6  -1  728  296           
12 12.01.11 120 (ЮВ) >10 км    4/1 300 м верхняя 
[Sc|Ci fib]
-1.7 -3.3 89 -5  1027  -0.5  728  295           
15 12.01.11 150 (ЮВ) 4000 м  дымка  8/8 100 м 
[St]
-5.6 -5.9 98 -10  1028.1  0.2  728  300    -1.3       
18 12.01.11 150 (ЮВ) 10 км    9/9 120 м 
[St]
-6 -6.5 96 -11  1027.4  -0.7  728  300    -1.3       
21 12.01.11 150 (ЮВ) 4000 м  дымка  10/10 60 м 
[St]
-6.2 -6.8 95 -12  1026.5  -1  727  300           
00 13.01.11 140 (ЮВ) 4000 м  дымка  10/10 150 м 
[St]
-5.3 -5.8 96 -9  1025.7  -0.5  727  299           
03 13.01.11 150 (ЮВ) 4000 м  дымка  10/10 120 м 
[St]
-5.5 -6 96 -9  1024.4  -1.2  726  299           
06 13.01.11 140 (ЮВ) 10 км    3/3 200 м средняя 
[St|Ac trans]
-5.1 -5.5 97 -8  1023.8  -0.5  725  298  -6.3         
09 13.01.11 140 (ЮВ) >10 км    5/0 верхняя 
[Ci fib]
+0.6 -3.2 76 -2  1021.1  -1.3  724  291           
12 13.01.11 110 (В) >10 км    5/0 верхняя 
[Ci fib]
+4.2 -4.6 53 +2  1019.3  -1.1  723  287           
15 13.01.11 080 (В) >10 км    8/0 средняя 
[Ac trans]
-1.4 -5.2 75 -2  1020.2  -0.3  723  293    +4.2       
18 13.01.11 190 (Ю) >10 км    4/0 средняя 
[Ac trans]
-3.7 -6.3 82 -5  1019.8  -0.9  723  296    +4.2       
21 13.01.11 180 (Ю) >10 км    ясно 
-3.2 -5.7 83 -4  1018.2  -1.3  722  295           
00 14.01.11 140 (ЮВ) >10 км    ясно 
-2.6 -8.8 62 -4  1017.3  -0.8  721  294           
03 14.01.11 210 (ЮЗ) >10 км    3/0 средняя 
[Ac trans]
-2.9 -8.9 63 -2  1016.6  -0.7  720  294           
06 14.01.11 170 (Ю) >10 км    6/0 верхняя 
[Ci fib]
-0.4 -6.4 64 -2  1016  0.1  720  291  -6.8         
09 14.01.11 130 (ЮВ) >10 км    6/0 верхняя 
[Ci fib]
+5.3 -3.7 52 +6  1014.1  -0.7  720  285           
12 14.01.11 010 (С) >10 км    8/0 верхняя 
[Ci fib]
+4.3 -3.7 56 +4  1013.9  -0.3  720  286           
15 14.01.11 180 (Ю) >10 км    8/0 верхняя 
[Ci fib]
-2.3 -4.9 82 -3  1015.9  0.6  720  293    +8.7       
18 14.01.11 230 (ЮЗ) >10 км    10/0 верхняя 
[Ci fib]
+1.1 -6.4 57 1015  -0.2  720  289    +8.7       
21 14.01.11 240 (ЮЗ) >10 км    10/0 верхняя 
[Ci fib]
+1.8 -9.8 42 +1  1015  0.1  720  289           
00 15.01.11 260 (З) >10 км    10/0 верхняя 
[Ci fib]
+1.9 -5.2 59 +1  1015.2  0.2  720  289           
03 15.01.11 290 (З) >10 км  слаб. ливневой снег  10/6 600 м кучево-дожд., средняя 
[Cb cap|Ac und]
+2.4 +0.8 89 1015.7  0.6  721  288           
06 15.01.11 300 (СЗ) 10 км  {ливн. осадки}  10/8 120 м кучево-дожд., средняя 
[Cb calv|Ac und]
+1.8 +1.2 96 +1  1017.1    722  289  -2.7    0.0     
09 15.01.11 050 (СВ) 10 км    10/8 240 м кучево-дожд., средняя 
[Cb calv|Ac und]
+3.4 +1.6 88 +3  1016.4  -0.4  721  287           
12 15.01.11 320 (СЗ) >10 км    10/8 300 м кучево-дожд., средняя 
[Cb calv|Ac trans]
+2.5 +1.5 93 +1  1017.1  0.5  722  288           
15 15.01.11 330 (СЗ) 0200 м  туман  ?/?  
+0.4 +0.2 99 -1  1018.8  1.2  722  291    +4.1       
18 15.01.11 360 (С) 0400 м  слаб. морось{туман}  ?/?  
-0.1 -0.2 99 +1  1019.4  0.5  723  291    +4.1  0.0     
21 15.01.11 010 (С) 0200 м  слаб. переохл. морось (гололёд){туман} [диам. гололёда 1 мм]  ?/?  
-0.5 -0.6 99 1019.6  0.1  723  292           
00 16.01.11 060 (СВ) 0200 м  туман{морось} [диам. гололёда 2 мм]  ?/?  
-0.8 -0.8 100 1020  0.3  723  292           
03 16.01.11 130 (ЮВ) 0200 м  туман [диам. гололёда 2 мм]  н/о 
-0.8 -0.9 99 1020.1  0.1  723  292           
06 16.01.11 120 (ЮВ) 0200 м  туман [диам. гололёда 3 мм]  ?/?  
-0.5 -0.6 99 -1  1021.3  1.2  724  292  -0.8    0.2     
09 16.01.11 160 (Ю) 4000 м  дымка{туман} [диам. гололёда 0 мм]  10/10 180 м 
[St]
+0.6 +0.5 99 -1  1020.9  -0.2  724  291           
12 16.01.11 190 (Ю) >10 км  {туман}  10/10 180 м 
[St]
+1.1 +0.5 96 1020.3  -0.4  724  290           
15 16.01.11 320 (СЗ) >10 км    9/4 300 м средняя 
[Sc|Ac trans]
-0.1 -1 94 -1  1022.1  1.4  725  292    +1.7       
18 16.01.11 250 (З) >10 км    10/0 средняя, верхняя 
[As trans|Cs]
-0.9 -1.9 93 -2  1022.5  0.2  725  293    +1.7       
21 16.01.11 260 (З) >10 км  в посл. час дождь  10/4 600 м средняя, верхняя 
[Sc|Ac trans|Ci fib]
+0.9 +0.2 95 1021.8  -0.3  725  291           
00 17.01.11 270 (З) >10 км  слаб. дождь  10/5 300 м средняя 
[Sc|Ac und]
+1.3 +0.9 97 -1  1021.6  -0.1  725  290           
03 17.01.11 340 (С) 1200 м  снег{дождь}  10/10 50 м верхняя 
[Frnb|Ns|Ci fib]
-0.8 -1 99 -3  1022  725  293        <0.5  равномерный
мокрый или
старый снег
100% 
06 17.01.11 350 (С) 2000 м  снег{дождь}  10/10 120 м 
[Ns]
-1.9 -2.2 98 -4  1024.1  1.7  726  295  -2    <0.5  равномерный
мокрый или
старый снег
100% 
09 17.01.11 350 (С) 0200 м  туман{снег} [диам. гололёда 1 мм]  ?/?  
-3.2 -3.4 98 -6  1024.3  0.1  726  296           
12 17.01.11 340 (С) 0400 м  переохл. туман{снег} [диам. сложн. отлож. 2 мм]  ?/?  
-3.6 -3.6 100 -6  1023.9  -0.4  725  297           
15 17.01.11 340 (С) 0500 м  слаб. снег{туман} [диам. сложн. отлож. 2 мм]  ?/?  
-4.7 -5.1 97 -6  1024.2  0.2  726  298    -0.8       
18 17.01.11 300 (СЗ) 0500 м  слаб. снег{туман} [диам. сложн. отлож. 2 мм]  ?/?  
-5.1 -5.5 97 -7  1024.4  0.1  726  298    -0.8     
21 17.01.11 340 (С) 1700 м  снег{туман} [диам. сложн. отлож. 2 мм]  10/10 120 м 
[Ns]
-6.7 -7.3 96 -8  1024.7  0.1  726  300           
00 18.01.11 310 (СЗ) 2500 м  слаб. снег{туман}  10/0 средняя 
[As op]
-6.7 -7.3 96 -8  1024.7  726  300           
03 18.01.11 300 (СЗ) 1600 м  слаб. снег [диам. сложн. отлож. 2 мм]  10/10 100 м 
[Ns]
-7.2 -7.8 96 -9  1024.6  -0.2  725  300        равномерный
сухой снег
100% 
06 18.01.11 290 (З) 4000 м  слаб. снег [диам. сложн. отлож. 2 мм]  10/10 210 м 
[Ns]
-6.5 -7.1 95 -8  1024.6  0.1  725  300  -7.9    равномерный
сухой снег
100% 
09 18.01.11 300 (СЗ) 4000 м  слаб. снег [диам. сложн. отлож. 2 мм]  10/10 210 м 
[Ns]
-5.7 -6.4 95 -9  1023.8  -0.6  725  299           
12 18.01.11 310 (СЗ) 2000 м  снег [диам. сложн. отлож. 2 мм]  10/10 240 м 
[Ns]
-5.7 -6.3 96 -8  1023.4  -0.3  725  299           
15 18.01.11 330 (СЗ) 2000 м  снег [диам. сложн. отлож. 2 мм]  10/10 100 м 
[Ns]
-6.9 -7.8 93 -7  1023.9  725  300           
18 18.01.11 070 (В) 2500 м  снег [диам. сложн. отлож. 2 мм]  10/10 150 м 
[Ns]
-7.8 -8.5 95 -8  1024  725  301    -5.1     
21 18.01.11 350 (С) 10 км  слаб. снег [диам. сложн. отлож. 2 мм]  10/10 400 м 
[Ns]
-7.8 -8.6 94 -8  1023.7  -0.3  725  301           
00 19.01.11 340 (С) >10 км  {снег} [диам. сложн. отлож. 2 мм]  10/6 120 м 
[St]
-9.1 -10 93 -12  1024.7  0.7  725  303           
03 19.01.11 330 (СЗ) >10 км  [диам. сложн. отлож. 2 мм]  9/3 300 м средняя 
[Sc|Ac trans]
-11.4 -12.5 91 -15  1025.5  0.3  725  306        18  равномерный
сухой снег
100% 
06 19.01.11 270 (З) >10 км  [диам. сложн. отлож. 2 мм]  3/0 средняя 
[Ac trans]
-11.8 -13 91 -14  1027.1  1.4  726  307  -13    18  равномерный
сухой снег
100% 
09 19.01.11 300 (СЗ) >10 км  [диам. сложн. отлож. 1 мм]  3/0 верхняя 
[Ci fib]
-7.7 -10.8 78 -11  1026  0.1  726  302           
12 19.01.11 310 (СЗ) >10 км    5/0 верхняя 
[Ci fib]
-6.5 -11.1 70 -8  1025.8  726  301           
15 19.01.11 270 (З) >10 км    3/0 верхняя 
[Ci fib]
-13 -14.1 92 -15  1027.9  727  309           
18 19.01.11 120 (ЮВ) >10 км    3/0 верхняя 
[Ci fib]
-13.5 -14.7 91 -13  1028.3  0.2  727  309    -6.1       
21 19.01.11 160 (Ю) >10 км    3/0 верхняя 
[Ci fib]
-12.6 -13.9 90 -15  1027.5  -0.6  727  308           
00 20.01.11 120 (ЮВ) н/о    н/о 
-14.1 -15.3 90 -14  1027.2  -0.6  726  310           
03 20.01.11 170 (Ю) >10 км    9/0 верхняя 
[Ci fib]
-14.7 -16 90 -17  1027  -0.3  726  310           
06 20.01.11 110 (В) >10 км    10/0 средняя 
[Ac und]
-11.6 -12.8 91 -14  1027  0.7  726  307  -15.7      18  равномерный
сухой снег
100% 
09 20.01.11 160 (Ю) >10 км    8/0 средняя, верхняя 
[Ac As|Ci sp]
-7.3 -10.6 77 -7  1026.8  0.7  727  302           
12 20.01.11 130 (ЮВ) >10 км    9/0 средняя, верхняя 
[Ac As|Ci sp]
-7.1 -10.8 75 -9  1026.8  -0.1  727  302           
15 20.01.11 170 (Ю) >10 км    8/0 средняя, верхняя 
[Ac As|Ci sp]
-10.9 -12.5 88 -14  1027.9  0.2  727  306           
18 20.01.11 170 (Ю) >10 км    4/0 средняя 
[Ac trans]
-12 -13.6 88 -15  1028.2  727  308    -5       
21 20.01.11 130 (ЮВ) >10 км    4/0 верхняя 
[Ci]
-12.8 -14.4 88 -16  1028.2  -0.2  727  309           
00 21.01.11 140 (ЮВ) >10 км    10/0 верхняя 
[Cs]
-13 -14.3 90 -16  1029.2  0.9  728  309           
03 21.01.11 130 (ЮВ) >10 км    5/0 верхняя 
[Ci fib]
-12.2 -14.2 85 -16  1028.8  0.2  728  308        13  равномерный
сухой снег
100% 
06 21.01.11 150 (ЮВ) >10 км    5/0 средняя, верхняя 
[Ac trans|Ci fib]
-11 -13 85 -15  1029.2  0.6  728  307  -13.1      13  равномерный
сухой снег
100% 
09 21.01.11 130 (ЮВ) >10 км    3/0 средняя, верхняя 
[Ac trans|Ci fib]
-6.7 -10.5 74 -9  1028.2  728  302           
12 21.01.11 120 (ЮВ) >10 км    3/0 верхняя 
[Ci fib]
-6.6 -10 77 -9  1028.4  728  302           
15 21.01.11 130 (ЮВ) >10 км    3/0 верхняя 
[Ci fib]
-10.8 -12.5 87 -15  1029.6  0.2  728  307           
18 21.01.11 150 (ЮВ) >10 км    ясно 
-7.3 -10.7 77 -11  1028.5  -0.3  728  302    -5.1       
21 21.01.11 100 (В) >10 км    ясно 
-11.5 -13.5 85 -15  1029.2  -0.2  728  307           
00 22.01.11 130 (ЮВ) >10 км    ясно 
-11.3 -13.2 86 -14  1029.4  0.2  728  307           
03 22.01.11 190 (Ю) >10 км    ясно 
-12.3 -14 87 -14  1028.9  -0.7  728  308        10  равномерный
сухой снег
100% 
06 22.01.11 120 (ЮВ) >10 км    1/0 верхняя 
[Ci fib]
-9.7 -13.1 76 -10  1028.7  0.4  728  305  -12.4      10  равномерный
сухой снег
100% 
09 22.01.11 130 (ЮВ) >10 км    1/0 верхняя 
[Ci fib]
-4.3 -9.5 67 -6  1026.5  -0.9  727  299           
12 22.01.11 130 (ЮВ) >10 км    3/0 верхняя 
[Ci fib]
-4.6 -8.9 72 -6  1025.3  -1.2  726  299           
15 22.01.11 150 (ЮВ) >10 км    5/0 верхняя 
[Ci fib]
-5.6 -10.8 67 -9  1025.5  0.1  726  300           
18 22.01.11 140 (ЮВ) >10 км    3/0 верхняя 
[Ci fib]
-6.9 -11.1 72 -11  1024.9  -0.8  726  301    -4       
21 22.01.11 130 (ЮВ) >10 км    4/0 верхняя 
[Ci fib]
-10.1 -12.6 82 -12  1024.3  -1.2  725  304           
00 23.01.11 190 (Ю) >10 км    4/0 верхняя 
[Ci fib]
-7.8 -11.2 76 -9  1022.9  -0.9  724  301           
03 23.01.11 160 (Ю) >10 км    6/0 верхняя 
[Ci fib]
-3.2 -7.6 71 -4  1021.1  -0.7  724  296        10  равномерный
сухой снег
100% 
06 23.01.11 190 (Ю) >10 км    10/0 верхняя 
[Ci fib]
-3.3 -6.5 78 -4  1020.9  -0.2  723  296  -10.6      10  равномерный
сухой снег
100% 
09 23.01.11 170 (Ю) >10 км    6/0 верхняя 
[Ci fib]
+7.5 -2.9 48 +7  1017.9  -0.7  723  284           
12 23.01.11 130 (ЮВ) >10 км    3/0 верхняя 
[Ci fib]
+3.7 -3.9 58 +2  1017.7  -0.9  722  287           
15 23.01.11 190 (Ю) >10 км    3/0 верхняя 
[Ci fib]
+0.9 -6.1 60 -1  1018.2  0.1  722  291           
18 23.01.11 140 (ЮВ) >10 км    8/0 верхняя 
[Ci fib]
+3.4 -7.6 44 +2  1016.5  -1.2  721  288    +7.5       
21 23.01.11 170 (Ю) >10 км    8/0 средняя 
[Ac trans]
+4.5 -9.4 36 +3  1015.1  -1.1  720  286           
00 24.01.11 150 (ЮВ) н/о    н/о 
+3.9 -7.1 44 +2  1014  -1.1  720  287           
03 24.01.11 130 (ЮВ) >10 км    9/9 600 м 
+3.5 -4.3 57 +2  1012.8  -1.2  719  286        равномерный
мокрый или
старый снег
100% 
06 24.01.11 320 (СЗ) >10 км    9/3 600 м средняя 
[Sc|Ac trans]
+5.6 -2.8 55 +5  1013.6  1.2  719  284  +1.5      равномерный
мокрый или
старый снег
100% 
09 24.01.11 290 (З) >10 км    10/4 600 м кучево-дожд., средняя 
[Cb calv|Ac und]
+6.6 +1.6 70 +5  1013.2  0.1  719  283           
12 24.01.11 290 (З) >10 км    10/3 600 м средняя, верхняя 
[Sc diur, vesp|Ac trans|Ci fib]
+5.5 +3 84 +3  1013.3  -0.1  719  284           
15 24.01.11 280 (З) >10 км    10/5 210 м средняя 
[Sc|Ac und]
+3.8 +3 95 +1  1014.8  1.1  720  286           
18 24.01.11 360 (С) 0100 м  туман  ?/?  
+1.4 +1.1 98 +1  1016.7  1.2  721  289    +7.1       
21 24.01.11 тихо ()   0400 м  слаб. морось{туман}  ?/?  
+1.4 +1.1 98 +1  1016.7  721  289           
00 25.01.11 330 (СЗ) 0900 м  слаб. снег{морось}  ?/?  
+0.2 +0.1 99 -2  1018.2  1.2  722  291           
03 25.01.11 120 (ЮВ) 1500 м  дымка{снег, дождь}  10/10 60 м 
[St]
+0.3 +0.2 99 1016.4  -1.6  721  290        мокрый или
старый снег
10-40% 
06 25.01.11 080 (В) 0100 м  туман{снег, дождь}  ?/?  
+0.5 +0.4 99 -1  1015.8  -0.6  720  290  +0.1       
09 25.01.11 110 (В) 0100 м  туман  ?/?  
+1.8 +1.7 99 -1  1013.6  -1.8  719  287           
12 25.01.11 120 (ЮВ) 4000 м  дымка{туман}  10/10 120 м 
[St]
+2 +1.8 99 -2  1010.7  -2.7  717  286           
15 25.01.11 140 (ЮВ) 4000 м  дымка  10/10 120 м 
[St]
+0.3 -0.1 97 -4  1010.7  -0.3  717  288           
18 25.01.11 120 (ЮВ) 4000 м  дымка  10/10 60 м 
[St]
+0 -0.6 96 -2  1011.4  0.4  717  289    +2.7       
21 25.01.11 120 (ЮВ) 4000 м  дымка  10/10 100 м 
[St]
+0 -0.6 96 -2  1009.9  -1.4  716  289           
00 26.01.11 140 (ЮВ) 0400 м  туман  ?/?  
-0.4 -0.4 100 -3  1009  -1  715  289           
03 26.01.11 140 (ЮВ) 0200 м  туман [диам. гололёда 1 мм]  ?/?  
-0.9 -0.9 100 -4  1008.4  -0.6  715  289           
06 26.01.11 300 (СЗ) 0200 м  туман [диам. гололёда 1 мм]  ?/?  
-0.9 -0.9 100 1009.2  1.1  716  289  -1         
09 26.01.11 260 (З) 2000 м  дымка{туман}  10/10 60 м 
[St]
+1 +0.8 98 1009.1  0.2  716  287           
12 26.01.11 280 (З) 1500 м  дымка{туман}  10/10 120 м 
[St]
+0.7 +0.3 97 -2  1009.5  0.4  716  288           
15 26.01.11 290 (З) 0500 м  туман{морось} [диам. гололёда 1 мм]  ?/?  
-1.7 -1.8 99 -5  1012.4  2.2  718  291           
18 26.01.11 280 (З) 1700 м  снег{морось} [диам. гололёда 1 мм]  10/10 120 м 
[Ns]
-3.7 -4.3 95 -8  1015.5  2.5  719  294    +3.6  0.0     
21 26.01.11 280 (З) >10 км  слаб. снег [диам. гололёда 1 мм]  10/10 210 м 
[Ns]
-4.7 -5.2 96 -9  1017.6  1.8  721  296           
00 27.01.11 290 (З) >10 км  {снег} [диам. гололёда 1 мм]  10/10 150 м 
[Ns]
-4.8 -5.3 96 -7  1019.6  1.8  722  297           
03 27.01.11 320 (СЗ) 2000 м  дымка [диам. гололёда 1 мм]  10/10 60 м 
[St]
-5.1 -5.5 97 -5  1020.4  0.8  723  297        равномерный
сухой снег
100% 
06 27.01.11 160 (Ю) 2000 м  дымка [диам. гололёда 1 мм]  10/10 60 м 
[St]
-4.5 -4.9 97 -4  1021.1  0.7  723  297  -5.2    0.3  равномерный
сухой снег
100% 
09 27.01.11 090 (В) 0700 м  туман [диам. гололёда 1 мм]  ?/?  
-4.3 -4.6 98 -6  1020.3  -0.7  723  296           
12 27.01.11 100 (В) 4000 м  дымка{туман} [диам. гололёда 1 мм]  10/10 120 м 
[St]
-4 -4.4 97 -5  1019.3  -1  722  296           
15 27.01.11 080 (В) 3000 м  слаб. снег [диам. гололёда 1 мм]  10/10 180 м 
[Ns]
-4 -4.4 97 -5  1020.3  0.9  723  296           
18 27.01.11 100 (В) 2000 м  слаб. снег [диам. гололёда 1 мм]  10/10 100 м 
[Ns]
-4.4 -4.9 96 -7  1021.1  0.7  723  297    -3.8       
21 27.01.11 120 (ЮВ) 3000 м  слаб. снег  10/10 120 м 
[Ns]
-4.2 -4.6 97 -5  1021.5  0.5  724  297           
00 28.01.11 140 (ЮВ) 2000 м  слаб. снег [диам. гололёда 1 мм]  10/10 120 м 
[Ns]
-4.2 -4.6 97 -5  1022.2  0.6  724  297           
03 28.01.11 140 (ЮВ) н/о    н/о 
-3.9 -4.3 97 -5  1022.7  0.6  725  297           
06 28.01.11 210 (ЮЗ) 10 км  {снег} [диам. гололёда 1 мм]  10/5 450 м средняя 
[Sc|Ac und]
-2.9 -3.2 98 -2  1024.1  1.5  726  296  -4.4      равномерный
сухой снег
100% 
09 28.01.11 270 (З) 4000 м  дымка{снег}  10/10 180 м 
[St]
-1 -1.3 98 -3  1023.9  0.2  726  294           
12 28.01.11 290 (З) 10 км  {снег}  10/8 300 м верхняя 
[Sc|Cc]
-1.2 -1.8 96 -4  1023.5  -0.5  726  294           
15 28.01.11 320 (СЗ) >10 км    4/3 300 м средняя 
[Sc|Ac trans]
-3.7 -4.4 95 -5  1024  726  297           
18 28.01.11 320 (СЗ) >10 км    3/3 300 м 
[Sc]
-5.5 -5.9 97 -7  1024.6  0.2  726  299    -0  0.0     
21 28.01.11 160 (Ю) 2000 м  дымка{туман}  10/10 100 м 
[St]
-5.7 -6.1 97 -5  1023.5  -1.1  725  299           
00 29.01.11 020 (С) 0100 м  переохл. туман  ?/?  
-6.5 -6.9 97 -6  1023.1  -1.1  724  300           
03 29.01.11 130 (ЮВ) 2000 м  дымка{туман}  10/10 120 м 
[St]
-7 -7.6 95 -7  1023  -0.2  724  300           
06 29.01.11 110 (В) 0200 м  переохл. туман  ?/? <0100 
-7.1 -7.7 96 -7  1023.3  0.3  725  300  -7.4      мокрый или
старый снег
50-90% 
09 29.01.11 130 (ЮВ) 4000 м  дымка{туман}  10/10 120 м 
[St]
-5.7 -6.3 96 -5  1022.3  -0.7  724  299           
12 29.01.11 240 (ЮЗ) 4000 м  дымка{туман}  10/10 120 м 
[St]
-4.9 -5.4 96 -4  1020.8  -1.2  723  297           
15 29.01.11 210 (ЮЗ) 4000 м  дымка  10/10 150 м 
[St]
-5.1 -5.6 96 -5  1021  0.2  723  298           
18 29.01.11 100 (В) 4000 м  дымка  10/10 210 м 
[St]
-4.9 -5.4 96 -6  1020.6  -0.3  723  297    -4.2       
21 29.01.11 130 (ЮВ) 2500 м  дымка  10/10 100 м 
[St]
-4.9 -5.4 96 -4  1020.1  -0.4  723  297           
00 30.01.11 070 (В) 0800 м  переохл. туман  ?/?  
-4.9 -5.3 97 -4  1019.3  -0.7  722  297           
03 30.01.11 130 (ЮВ) 10 км  {туман}  10/10 240 м 
[St]
-4.3 -4.7 97 -6  1018.4  -0.7  722  296           
06 30.01.11 160 (Ю) 10 км  {туман}  10/10 210 м 
[St]
-4.1 -4.5 97 -7  1018.4  722  296  -5.2         
09 30.01.11 150 (ЮВ) >10 км    10/8 300 м средняя 
[Sc|Ac und]
-2.7 -3.4 95 -5  1016.8  -1.3  721  294           
12 30.01.11 140 (ЮВ) >10 км    4/4 700 м 
[Sc]
+0.5 -3.3 76 -1  1014.1  -1.9  719  290           
15 30.01.11 130 (ЮВ) >10 км    4/0 верхняя 
[Ci fib]
-3.8 -4.8 93 -6  1014.5  -0.5  719  294           
18 30.01.11 180 (Ю) >10 км    ясно 
-5.3 -6 95 -7  1013.8  -0.9  718  296    +0.8       
21 30.01.11 330 (СЗ) 0300 м  туман  ?/?  
-5.6 -5.8 99 -8  1013.2  -0.7  718  296           
00 31.01.11 320 (СЗ) 0200 м  переохл. туман  ?/?  
-5.3 -5.8 96 -5  1012.3  -0.8  717  295           
03 31.01.11 300 (СЗ) 0700 м  переохл. туман  ?/?  
-4.5 -4.9 97 -6  1011.8  -0.3  717  294           
06 31.01.11 290 (З) 0600 м  переохл. туман  ?/?  
-4.8 -5.3 96 -4  1012.8  0.8  717  295  -7.5         
09 31.01.11 300 (СЗ) 4000 м  дымка{туман}  10/8 150 м средняя 
[St|Ac und]
-4.5 -5 96 -8  1013.5  0.8  718  295           
12 31.01.11 300 (СЗ) >10 км  {туман}  10/8 420 м средняя 
[Sc|Ac und]
-3.6 -8.6 68 -7  1013.6  0.2  718  294           
15 31.01.11 300 (СЗ) >10 км    10/6 330 м средняя 
[Sc|Ac und]
-5.2 -6.8 88 -8  1015.6  1.6  719  296           
18 31.01.11 300 (СЗ) 4000 м  дымка  10/8 150 м средняя 
[St|Ac und]
-6.7 -7.3 96 -11  1017.7  1.7  721  298    -3.5       
21 31.01.11 300 (СЗ) 2000 м  дымка  10/10 100 м 
[St]
-8.8 -9.5 95 -13  1019.3  1.1  721  301           
00 01.02.11 310 (СЗ) 2500 м  дымка  10/10 120 м 
[St]
-9.1 -9.9 94 -9  1020.2  0.8  722  302           
03 01.02.11 290 (З) 4000 м  слаб. снег  10/10 180 м 
[Ns]
-9 -9.9 93 -11  1020.3  -0.1  722  302        равномерный
сухой снег
100% 
Время (UTC), дата Ветер
(°,м/с) 
Видим.   Явления Облачность Т
(°С)
Тd
(°С)
f(%) Тe
(°С)
Pmin
(гПа)
dP
(гПа)
Po
(мм)
O2
(г/м3)
Тmin Tmax R s Состояние
почвы